Weather in Malokurilskoye

Russia / Sakhalin District     43°52′00″N   146°49′42″E
temp.,
°C
wind,
m/s
gust,
m/s
humid.,
%
clouds,
%
prec.,
mm/h
press.,
hPa
HPBL,
m
27 november, sat
sat2723:00+2w111492100 2.0 10051054
02:00+3w111467100 0.4 10051286
05:00+4w111368100 0.4 10051243
08:00+3w91180100 0.2 10041036
11:00+4w677125 1.0 1005982
14:00+3n6986100 1.2 1006894
17:00+4n11156023 1.8 10091559
20:00+4n1013645 0.1 10131239
28 november, sun
sun2823:00+4n121575100 0.7 10151464
02:00+3nnw9127993 0.4 10171137
05:00+3nw8107186 0.9 10191036
08:00+2nnw71073100 0.3 1021949
11:00+3nnw696195 0.5 10221541
14:00+4nw685795 0.1 10231695
17:00+3nw676474 0.1 1024877
20:00+3nw6106819 0.0 1025777
29 november, mon
mon2923:00+4wnw697223 0.0 1026745
02:00+3wsw56725 0.0 1025519
05:00+4wsw58660 0.0 1025471
08:00+4sw58745 0.0 1024440
11:00+7ssw7107519 0.0 1022799
14:00+7wsw6865100 0.0 1020494
17:00+6wsw59685 0.0 1020519
20:00+7wsw713805 0.0 1020514
30 november, tue
tue3023:00+7wsw8158227 0.0 1019469
02:00+7w7138491 0.0 1021378
05:00+6w2388100 0.0 102282
08:00+6n118788 0.0 102319
11:00+7ene117994 0.0 1024232
14:00+7ese4578100 0.0 1023422
17:00+7sse3688100 0.0 1022180
20:00+7ssw469512 0.0 102299
1 december, wed
wed123:00+8s612908 0.0 1021327
02:00+8sse91887100 0.0 1017549
05:00+10s132186100 0.4 1015795
08:00+10s152481100 0.0 1012964
11:00+10sse162685100 0.0 10081060
14:00+10sse162886100 0.3 10011130
17:00+11sse183089100 2.4 9951460
20:00+7wsw111793100 7.7 993861